Skip Page Navigation
NASA JPL Caltech
NASA Logo - Jet Propulsion Laboratory + View the NASA Portal
+ Center for Near-Earth Object Studies
JPL Home Earth Solar System Stars & Galaxies Technology
JPL Solar System Dynamics
BODIES ORBITS EPHEMERIDES TOOLS PHYSICAL DATA DISCOVERY FAQ SITE MAP
IMPORTANT: The SSD Announcement email list is now available. Major changes are coming in the near future, including possible hostname and/or URL changes. To be notified of such changes, subscribe to this email list.

Please visit this page for more details.


JPL Small-Body Database Browser
Search: [ help ]  
324856 (2007 LL33)
Classification: Main-belt Asteroid          SPK-ID: 2324856
Ephemeris | Orbit Diagram | Orbital Elements | Mission Design | Physical Parameters | Discovery Circumstances | Close-Approach Data ]

[ show orbit diagram ]
Orbital Elements at Epoch 2458600.5 (2019-Apr-27.0) TDB
Reference: JPL 8 (heliocentric ecliptic J2000)
 Element Value Uncertainty (1-sigma)   Units 
e .3293232157183774 1.4665e-07  
a 3.158284557334476 6.0196e-08 au
q 2.118188130759394 4.7575e-07 au
i 26.72866345856195 1.5574e-05 deg
node 136.0688871266266 2.4704e-05 deg
peri 144.2552935861823 4.2436e-05 deg
M 21.36920599574299 2.3196e-05 deg
tp 2458478.808233086953
(2018-Dec-26.30823309)
0.00013062 TDB
period 2050.101257736212
5.61
5.8611e-05
1.605e-07
d
yr
n .1756010824545923 5.0203e-09 deg/d
Q 4.198380983909558 8.002e-08 au
  Orbit Determination Parameters
   # obs. used (total)      83  
   data-arc span      5750 days (15.74 yr)  
   first obs. used      2002-09-10  
   last obs. used      2018-06-08  
   planetary ephem.      DE431  
   SB-pert. ephem.      SB431-N16  
   condition code      0  
   norm. resid. RMS      .63829  
   source      ORB  
   producer      Otto Matic  
   solution date      2019-Jul-14 07:20:06  

Additional Information
 Earth MOID = 1.14407 au 
 Jupiter MOID = 1.34148 au 
 T_jup = 2.962 
[ show covariance matrix ]

Ephemeris | Orbit Diagram | Orbital Elements | Mission Design | Physical Parameters | Discovery Circumstances | Close-Approach Data ]

Physical Parameter Table
Parameter Symbol Value Units Sigma Reference Notes
absolute magnitude H 15.9   n/a MPO437406  

324856 (2007 LL33)          Discovered 2007-Jun-06 by CSS at Catalina
Reference: 20120406/Numbers.arcLast Updated: 2012-04-09

[ show close-approach data ]
Ephemeris | Orbit Diagram | Orbital Elements | Mission Design | Physical Parameters | Discovery Circumstances | Close-Approach Data ]
ABOUT SSD CREDITS/AWARDS PRIVACY/COPYRIGHT GLOSSARY LINKS
FirstGov 2019-Oct-19 16:22 UT
(server date/time)  
NASA Home Page
Site Manager:   Ryan S. Park
Webmaster  Alan B. Chamberlin